Find Starlink 3641

NORAD ID: 51788 Int'l Des: 2022-017 Owner: SPXS Country: US Constellation: starlink operational
LEOCIRCULAR

リアルタイム位置

3D地球を読み込み中...

Starlink 3641について

説明を読み込み中...

次回通過

Passes for default location (London). Set your location on the main map for personalized predictions.

高度履歴

Loading altitude history...

軌道要素

1 51788U 22017W 26127.26816440 .00000519 00000-0 50706-4 0 9997
2 51788 53.2172 86.1540 0001346 93.1228 266.9918 15.08829279232766
Epoch: May 7, 2026 • Age: 9 hours

現在のステータス

高度 546.2 km
速度 7.59 km/s
衛星直下点 -21.58°S, 173.37°W
打ち上げ日 Feb 25, 2022
運用期間 4.1 years
タイプ internet

技術仕様

分類 Payload
質量 297.00 kg
乾燥質量 275.00 kg
総質量 297.00 kg
長さ 0.20 m
直径 2.80 m
スパン 9.00 m
形状 Box + pan
製造者 SPXS
バスタイプ Starlink
フェーズステータス In Orbit
所有者/国 SPXS/US

Most Searched